{"data":{"norad_id":67226,"intl_designator":"2025-306A","name":"TJS-23","alt_names":[],"object_type":"PAYLOAD","status":"ACTIVE","operator":null,"country":"PRC","launch_date":"2025-12-20","launch_site_code":"WSC","launch_vehicle":null,"mission":null,"orbit_class":"UNKNOWN","rcs_meters":null,"size_class":null,"mass_kg":null,"dimensions":null,"purposes":["comms"],"wikipedia_slug":null,"has_3d_model":false,"image_url":null,"decayed_at":null,"tle_current":{"epoch":"2026-09-19T08:12:16.497504Z","epoch_age_seconds":118400,"freshness":"FRESH","line1":"1 67226U 25306A   26262.34185761  .00000012  00000+0  00000+0 0  9993","line2":"2 67226   5.3805 297.0417 0004673 256.8335 103.0107  1.00275651  2830","mean_motion":1.00275651,"eccentricity":0.0004673,"inclination_deg":5.3805,"raan_deg":297.0417,"arg_perigee_deg":256.8335,"mean_anomaly_deg":103.0107,"bstar":0,"rev_number":283,"period_min":1436.0415371425,"perigee_km":35765.808143059,"apogee_km":35805.214288682,"semimajor_km":42163.648215871,"source":"CELESTRAK","updated_at":"2026-09-20T09:00:35.347709Z"}}}